Regional Weather Roundup
Issued by NWS Newport/Morehead, NC

Current Version | Previous Version | Graphics & Text | Print | Product List | Glossary Off
Versions: 1 2 3 4 5 6 7 8 9 10 11 12 13 14 15 16 17 18 19 20 21 22 23 24 25 26 27 28 29 30 31 32 33 34 35 36 37 38 39 40 41 42 43 44 45 46 47 48 49 50

000
ASUS42 KMHX 291922
RWRMHX
WEATHER ROUNDUP FOR EASTERN NORTH CAROLINA
NATIONAL WEATHER SERVICE NEWPORT/MOREHEAD CITY NC
200 PM EST THU JAN 29 2015

NOTE: "FAIR" INDICATES FEW OR NO CLOUDS BELOW 12,000 FEET
WITH NO SIGNIFICANT WEATHER AND/OR OBSTRUCTIONS TO VISIBILITY

NCZ015>017-031-032-045>047-102-103-292000-
NORTH COAST

CITY           SKY/WX    TMP DP  RH WIND       PRES   REMARKS
EDENTON        PTSUNNY   41  20  43 SW6       30.25F
ELIZABETH CITY CLOUDY    39  13  34 SW3       30.24F
KITTY HAWK     CLOUDY    38  24  56 CALM      30.22F
MANTEO         CLOUDY    37  23  56 CALM      30.24F

$$

NCZ045>047-081-094-103-104-292000-
CENTRAL COAST

CITY           SKY/WX    TMP DP  RH WIND       PRES   REMARKS
FRISCO         PTSUNNY   40  25  55 VRB5      30.25F
SWANQUARTER    NOT AVBL

$$

NCZ095-097-098-100-101-292000-
SOUTHERN COAST

CITY           SKY/WX    TMP DP  RH WIND       PRES   REMARKS
BEAUFORT       PTSUNNY   43  26  51 S8        30.27F
CEDAR ISLAND   NOT AVBL
JACKSONVILLE   MOSUNNY   46  15  28 E7        30.25F
PINEY ISLAND     N/A    N/A N/A N/A MISG      30.26F
WILMINGTON     MOSUNNY   49  20  31 SE6       30.26F


$$

NCZ011>013-027>030-043-044-078>080-089-090>093-098-292000-
COASTAL PLAIN

CITY           SKY/WX    TMP DP  RH WIND       PRES   REMARKS
AHOSKIE        PTSUNNY   41  13  31 S6        30.23F
CLINTON        PTSUNNY   48  17  29 SW7       30.25F
ELIZABETHTOWN  PTSUNNY   50  16  25 S7        30.24F
GOLDSBORO      PTSUNNY   45  17  32 CALM      30.23F
GREENVILLE     PTSUNNY   45  16  31 S6        30.26F
HAVELOCK       PTSUNNY   48  13  24 CALM      30.27F
KENANSVILLE    CLOUDY    47  10  22 CALM      30.25F
KINSTON        PTSUNNY   46  16  29 SW6       30.26F
NEW BERN       MOSUNNY   48  16  27 NE3       30.26F
RICHLANDS      MOSUNNY   50  16  25 SW8       30.25F
ROCKY MOUNT    PTSUNNY   44  15  31 S8        30.24F
WASHINGTON     PTSUNNY   43  16  33 SW3       30.25F
WHITEVILLE     PTSUNNY   50  14  23 S7        30.26F

$$

AMZ130-135-150-152-154-156-158-170-250-252-270-ANZ085-086-088-633-658-670-292000-
MARINE OBSERVATIONS

STATION/POSITION TIME  TEMP    WIND        PRES    WAVE   SWELL
                       AIR SEA DIR/SP/G            HT/PER HT/PER
                 (UTC) (F)     (DEG/KT/KT) (MB)    (FT/S) (FT/S)
CHESAPEAKE LIGHT 1900   36                 1024.0
64 E VA BEACH    1900   39 49  280/  4/  6 1023.4    5/ 8   5/ 8
DUCK             1900   37 42  220/  5/  5 1023.3
2 E DUCK         1900      42                N/A     4/11   2/11
10 NE DUCK       1800      45                N/A     4/11   2/11
OREGON INLET     1900   38 42  230/  2/  3 1024.4
13E OREGON INLT  1900      43                N/A     5/11   2/11
HATTERAS CG      1900   38 44  320/  3/  6 1024.9
DIAMOND BUOY     1900   41 71  320/  6/ 10 1024.4    5/10   5/10
17 S OCRACOKE    NOT AVBL
CAPE LOOKOUT     1900   42     260/  3/  5 1024.8
BEAUFORT LAB     1900   40 45  190/  7/  9 1024.0
27 SE WRIGHTSVLE NOT AVBL
5 SE WRIGHTSVLE  1800   45 52  100/  2/  4 1026.2
225 S CAPE HAT   1801   57 72  320/ 10/ 14 1024.7    7/11   7/11
41 SE CHARLESTON 1900   55 68  190/  8/ 10 1024.5    3/10   3/10

$$



USA.gov is the U.S. government's official web portal to all federal, state and local government web resources and services.